Index of /20260430/WXO-DD/model_gdps/15km/12/015
Name Last modified Size Description
Parent Directory -
20260430T12Z_MSC_GDPS_AbsoluteVorticity_IsbL-0200_LatLon0.15_PT015H.grib2 2026-04-30 15:52 1.5M
20260430T12Z_MSC_GDPS_AbsoluteVorticity_IsbL-0250_LatLon0.15_PT015H.grib2 2026-04-30 15:52 1.3M
20260430T12Z_MSC_GDPS_AbsoluteVorticity_IsbL-0500_LatLon0.15_PT015H.grib2 2026-04-30 15:52 1.5M
20260430T12Z_MSC_GDPS_AbsoluteVorticity_IsbL-0700_LatLon0.15_PT015H.grib2 2026-04-30 15:52 1.3M
20260430T12Z_MSC_GDPS_AbsoluteVorticity_IsbL-0850_LatLon0.15_PT015H.grib2 2026-04-30 15:52 1.6M
20260430T12Z_MSC_GDPS_AirTemp_AGL-120m_LatLon0.15_PT015H.grib2 2026-04-30 15:52 904K
20260430T12Z_MSC_GDPS_AirTemp_AGL-2m_LatLon0.15_PT015H.grib2 2026-04-30 15:52 1.0M
20260430T12Z_MSC_GDPS_AirTemp_AGL-40m_LatLon0.15_PT015H.grib2 2026-04-30 15:52 926K
20260430T12Z_MSC_GDPS_AirTemp_AGL-80m_LatLon0.15_PT015H.grib2 2026-04-30 15:52 913K
20260430T12Z_MSC_GDPS_AirTemp_IsbL-0001_LatLon0.15_PT015H.grib2 2026-04-30 15:52 657K
20260430T12Z_MSC_GDPS_AirTemp_IsbL-0005_LatLon0.15_PT015H.grib2 2026-04-30 15:52 678K
20260430T12Z_MSC_GDPS_AirTemp_IsbL-0010_LatLon0.15_PT015H.grib2 2026-04-30 15:52 694K
20260430T12Z_MSC_GDPS_AirTemp_IsbL-0020_LatLon0.15_PT015H.grib2 2026-04-30 15:52 787K
20260430T12Z_MSC_GDPS_AirTemp_IsbL-0030_LatLon0.15_PT015H.grib2 2026-04-30 15:52 751K
20260430T12Z_MSC_GDPS_AirTemp_IsbL-0050_LatLon0.15_PT015H.grib2 2026-04-30 15:52 807K
20260430T12Z_MSC_GDPS_AirTemp_IsbL-0100_LatLon0.15_PT015H.grib2 2026-04-30 15:52 955K
20260430T12Z_MSC_GDPS_AirTemp_IsbL-0150_LatLon0.15_PT015H.grib2 2026-04-30 15:52 1.0M
20260430T12Z_MSC_GDPS_AirTemp_IsbL-0175_LatLon0.15_PT015H.grib2 2026-04-30 15:52 959K
20260430T12Z_MSC_GDPS_AirTemp_IsbL-0200_LatLon0.15_PT015H.grib2 2026-04-30 15:52 1.0M
20260430T12Z_MSC_GDPS_AirTemp_IsbL-0225_LatLon0.15_PT015H.grib2 2026-04-30 15:52 1.0M
20260430T12Z_MSC_GDPS_AirTemp_IsbL-0250_LatLon0.15_PT015H.grib2 2026-04-30 15:52 1.0M
20260430T12Z_MSC_GDPS_AirTemp_IsbL-0275_LatLon0.15_PT015H.grib2 2026-04-30 15:52 1.0M
20260430T12Z_MSC_GDPS_AirTemp_IsbL-0300_LatLon0.15_PT015H.grib2 2026-04-30 15:52 949K
20260430T12Z_MSC_GDPS_AirTemp_IsbL-0350_LatLon0.15_PT015H.grib2 2026-04-30 15:52 930K
20260430T12Z_MSC_GDPS_AirTemp_IsbL-0400_LatLon0.15_PT015H.grib2 2026-04-30 15:52 937K
20260430T12Z_MSC_GDPS_AirTemp_IsbL-0450_LatLon0.15_PT015H.grib2 2026-04-30 15:52 957K
20260430T12Z_MSC_GDPS_AirTemp_IsbL-0500_LatLon0.15_PT015H.grib2 2026-04-30 15:52 760K
20260430T12Z_MSC_GDPS_AirTemp_IsbL-0550_LatLon0.15_PT015H.grib2 2026-04-30 15:52 794K
20260430T12Z_MSC_GDPS_AirTemp_IsbL-0600_LatLon0.15_PT015H.grib2 2026-04-30 15:52 889K
20260430T12Z_MSC_GDPS_AirTemp_IsbL-0650_LatLon0.15_PT015H.grib2 2026-04-30 15:52 916K
20260430T12Z_MSC_GDPS_AirTemp_IsbL-0700_LatLon0.15_PT015H.grib2 2026-04-30 15:52 944K
20260430T12Z_MSC_GDPS_AirTemp_IsbL-0750_LatLon0.15_PT015H.grib2 2026-04-30 15:52 1.0M
20260430T12Z_MSC_GDPS_AirTemp_IsbL-0800_LatLon0.15_PT015H.grib2 2026-04-30 15:52 1.0M
20260430T12Z_MSC_GDPS_AirTemp_IsbL-0850_LatLon0.15_PT015H.grib2 2026-04-30 15:52 1.1M
20260430T12Z_MSC_GDPS_AirTemp_IsbL-0875_LatLon0.15_PT015H.grib2 2026-04-30 15:52 1.1M
20260430T12Z_MSC_GDPS_AirTemp_IsbL-0900_LatLon0.15_PT015H.grib2 2026-04-30 15:52 1.1M
20260430T12Z_MSC_GDPS_AirTemp_IsbL-0925_LatLon0.15_PT015H.grib2 2026-04-30 15:52 1.1M
20260430T12Z_MSC_GDPS_AirTemp_IsbL-0950_LatLon0.15_PT015H.grib2 2026-04-30 15:52 1.1M
20260430T12Z_MSC_GDPS_AirTemp_IsbL-0970_LatLon0.15_PT015H.grib2 2026-04-30 15:52 1.1M
20260430T12Z_MSC_GDPS_AirTemp_IsbL-0985_LatLon0.15_PT015H.grib2 2026-04-30 15:52 1.1M
20260430T12Z_MSC_GDPS_AirTemp_IsbL-1000_LatLon0.15_PT015H.grib2 2026-04-30 15:52 1.1M
20260430T12Z_MSC_GDPS_AirTemp_IsbL-1015_LatLon0.15_PT015H.grib2 2026-04-30 15:52 1.1M
20260430T12Z_MSC_GDPS_Albedo_Sfc_LatLon0.15_PT015H.grib2 2026-04-30 15:52 242K
20260430T12Z_MSC_GDPS_CAPE_Sfc_LatLon0.15_PT015H.grib2 2026-04-30 15:52 3.9M
20260430T12Z_MSC_GDPS_CIN_Sfc_LatLon0.15_PT015H.grib2 2026-04-30 15:52 2.9M
20260430T12Z_MSC_GDPS_CloudWater_EAtm_LatLon0.15_PT015H.grib2 2026-04-30 15:52 526K
20260430T12Z_MSC_GDPS_ConvectivePrecip-Accum_Sfc_LatLon0.15_PT015H.grib2 2026-04-30 15:52 2.1M
20260430T12Z_MSC_GDPS_DewPointDepression_AGL-2m_LatLon0.15_PT015H.grib2 2026-04-30 15:52 761K
20260430T12Z_MSC_GDPS_DewPointDepression_IsbL-0010_LatLon0.15_PT015H.grib2 2026-04-30 15:52 62K
20260430T12Z_MSC_GDPS_DewPointDepression_IsbL-0020_LatLon0.15_PT015H.grib2 2026-04-30 15:52 65K
20260430T12Z_MSC_GDPS_DewPointDepression_IsbL-0030_LatLon0.15_PT015H.grib2 2026-04-30 15:52 72K
20260430T12Z_MSC_GDPS_DewPointDepression_IsbL-0050_LatLon0.15_PT015H.grib2 2026-04-30 15:52 370K
20260430T12Z_MSC_GDPS_DewPointDepression_IsbL-0100_LatLon0.15_PT015H.grib2 2026-04-30 15:52 417K
20260430T12Z_MSC_GDPS_DewPointDepression_IsbL-0150_LatLon0.15_PT015H.grib2 2026-04-30 15:52 467K
20260430T12Z_MSC_GDPS_DewPointDepression_IsbL-0175_LatLon0.15_PT015H.grib2 2026-04-30 15:52 560K
20260430T12Z_MSC_GDPS_DewPointDepression_IsbL-0200_LatLon0.15_PT015H.grib2 2026-04-30 15:52 685K
20260430T12Z_MSC_GDPS_DewPointDepression_IsbL-0225_LatLon0.15_PT015H.grib2 2026-04-30 15:52 798K
20260430T12Z_MSC_GDPS_DewPointDepression_IsbL-0250_LatLon0.15_PT015H.grib2 2026-04-30 15:52 880K
20260430T12Z_MSC_GDPS_DewPointDepression_IsbL-0275_LatLon0.15_PT015H.grib2 2026-04-30 15:52 888K
20260430T12Z_MSC_GDPS_DewPointDepression_IsbL-0300_LatLon0.15_PT015H.grib2 2026-04-30 15:52 932K
20260430T12Z_MSC_GDPS_DewPointDepression_IsbL-0350_LatLon0.15_PT015H.grib2 2026-04-30 15:52 953K
20260430T12Z_MSC_GDPS_DewPointDepression_IsbL-0400_LatLon0.15_PT015H.grib2 2026-04-30 15:52 1.0M
20260430T12Z_MSC_GDPS_DewPointDepression_IsbL-0450_LatLon0.15_PT015H.grib2 2026-04-30 15:52 1.0M
20260430T12Z_MSC_GDPS_DewPointDepression_IsbL-0500_LatLon0.15_PT015H.grib2 2026-04-30 15:52 1.0M
20260430T12Z_MSC_GDPS_DewPointDepression_IsbL-0550_LatLon0.15_PT015H.grib2 2026-04-30 15:52 1.0M
20260430T12Z_MSC_GDPS_DewPointDepression_IsbL-0600_LatLon0.15_PT015H.grib2 2026-04-30 15:52 1.0M
20260430T12Z_MSC_GDPS_DewPointDepression_IsbL-0650_LatLon0.15_PT015H.grib2 2026-04-30 15:52 1.1M
20260430T12Z_MSC_GDPS_DewPointDepression_IsbL-0700_LatLon0.15_PT015H.grib2 2026-04-30 15:52 1.1M
20260430T12Z_MSC_GDPS_DewPointDepression_IsbL-0750_LatLon0.15_PT015H.grib2 2026-04-30 15:52 1.1M
20260430T12Z_MSC_GDPS_DewPointDepression_IsbL-0800_LatLon0.15_PT015H.grib2 2026-04-30 15:52 1.1M
20260430T12Z_MSC_GDPS_DewPointDepression_IsbL-0850_LatLon0.15_PT015H.grib2 2026-04-30 15:52 1.1M
20260430T12Z_MSC_GDPS_DewPointDepression_IsbL-0875_LatLon0.15_PT015H.grib2 2026-04-30 15:52 1.1M
20260430T12Z_MSC_GDPS_DewPointDepression_IsbL-0900_LatLon0.15_PT015H.grib2 2026-04-30 15:52 1.1M
20260430T12Z_MSC_GDPS_DewPointDepression_IsbL-0925_LatLon0.15_PT015H.grib2 2026-04-30 15:52 1.0M
20260430T12Z_MSC_GDPS_DewPointDepression_IsbL-0950_LatLon0.15_PT015H.grib2 2026-04-30 15:52 1.0M
20260430T12Z_MSC_GDPS_DewPointDepression_IsbL-0970_LatLon0.15_PT015H.grib2 2026-04-30 15:52 1.0M
20260430T12Z_MSC_GDPS_DewPointDepression_IsbL-0985_LatLon0.15_PT015H.grib2 2026-04-30 15:52 1.0M
20260430T12Z_MSC_GDPS_DewPointDepression_IsbL-1000_LatLon0.15_PT015H.grib2 2026-04-30 15:52 1.0M
20260430T12Z_MSC_GDPS_DewPointDepression_IsbL-1015_LatLon0.15_PT015H.grib2 2026-04-30 15:52 917K
20260430T12Z_MSC_GDPS_DewPoint_AGL-2m_LatLon0.15_PT015H.grib2 2026-04-30 15:52 603K
20260430T12Z_MSC_GDPS_DownwardLongwaveRadiationFlux-Accum_Sfc_LatLon0.15_PT015H.grib2 2026-04-30 15:52 829K
20260430T12Z_MSC_GDPS_DownwardShortwaveRadiationFlux-Accum_NTAtm_LatLon0.15_PT015H.grib2 2026-04-30 15:52 367K
20260430T12Z_MSC_GDPS_DownwardShortwaveRadiationFlux-Accum_Sfc_LatLon0.15_PT015H.grib2 2026-04-30 15:52 1.0M
20260430T12Z_MSC_GDPS_FreezingRain-Accum1h_Sfc_LatLon0.15_PT015H.grib2 2026-04-30 15:52 37K
20260430T12Z_MSC_GDPS_FreezingRain-Accum3h_Sfc_LatLon0.15_PT015H.grib2 2026-04-30 15:52 53K
20260430T12Z_MSC_GDPS_FreezingRain-Accum_Sfc_LatLon0.15_PT015H.grib2 2026-04-30 15:52 153K
20260430T12Z_MSC_GDPS_GeopotentialHeight_IsbL-0001_LatLon0.15_PT015H.grib2 2026-04-30 15:52 423K
20260430T12Z_MSC_GDPS_GeopotentialHeight_IsbL-0005_LatLon0.15_PT015H.grib2 2026-04-30 15:52 485K
20260430T12Z_MSC_GDPS_GeopotentialHeight_IsbL-0010_LatLon0.15_PT015H.grib2 2026-04-30 15:52 472K
20260430T12Z_MSC_GDPS_GeopotentialHeight_IsbL-0020_LatLon0.15_PT015H.grib2 2026-04-30 15:52 411K
20260430T12Z_MSC_GDPS_GeopotentialHeight_IsbL-0030_LatLon0.15_PT015H.grib2 2026-04-30 15:52 568K
20260430T12Z_MSC_GDPS_GeopotentialHeight_IsbL-0050_LatLon0.15_PT015H.grib2 2026-04-30 15:52 572K
20260430T12Z_MSC_GDPS_GeopotentialHeight_IsbL-0100_LatLon0.15_PT015H.grib2 2026-04-30 15:52 607K
20260430T12Z_MSC_GDPS_GeopotentialHeight_IsbL-0150_LatLon0.15_PT015H.grib2 2026-04-30 15:52 625K
20260430T12Z_MSC_GDPS_GeopotentialHeight_IsbL-0175_LatLon0.15_PT015H.grib2 2026-04-30 15:52 629K
20260430T12Z_MSC_GDPS_GeopotentialHeight_IsbL-0200_LatLon0.15_PT015H.grib2 2026-04-30 15:52 632K
20260430T12Z_MSC_GDPS_GeopotentialHeight_IsbL-0225_LatLon0.15_PT015H.grib2 2026-04-30 15:52 637K
20260430T12Z_MSC_GDPS_GeopotentialHeight_IsbL-0250_LatLon0.15_PT015H.grib2 2026-04-30 15:52 636K
20260430T12Z_MSC_GDPS_GeopotentialHeight_IsbL-0275_LatLon0.15_PT015H.grib2 2026-04-30 15:52 638K
20260430T12Z_MSC_GDPS_GeopotentialHeight_IsbL-0300_LatLon0.15_PT015H.grib2 2026-04-30 15:52 636K
20260430T12Z_MSC_GDPS_GeopotentialHeight_IsbL-0350_LatLon0.15_PT015H.grib2 2026-04-30 15:52 625K
20260430T12Z_MSC_GDPS_GeopotentialHeight_IsbL-0400_LatLon0.15_PT015H.grib2 2026-04-30 15:52 618K
20260430T12Z_MSC_GDPS_GeopotentialHeight_IsbL-0450_LatLon0.15_PT015H.grib2 2026-04-30 15:52 610K
20260430T12Z_MSC_GDPS_GeopotentialHeight_IsbL-0500_LatLon0.15_PT015H.grib2 2026-04-30 15:52 530K
20260430T12Z_MSC_GDPS_GeopotentialHeight_IsbL-0550_LatLon0.15_PT015H.grib2 2026-04-30 15:52 523K
20260430T12Z_MSC_GDPS_GeopotentialHeight_IsbL-0600_LatLon0.15_PT015H.grib2 2026-04-30 15:52 687K
20260430T12Z_MSC_GDPS_GeopotentialHeight_IsbL-0650_LatLon0.15_PT015H.grib2 2026-04-30 15:52 684K
20260430T12Z_MSC_GDPS_GeopotentialHeight_IsbL-0700_LatLon0.15_PT015H.grib2 2026-04-30 15:52 684K
20260430T12Z_MSC_GDPS_GeopotentialHeight_IsbL-0750_LatLon0.15_PT015H.grib2 2026-04-30 15:52 689K
20260430T12Z_MSC_GDPS_GeopotentialHeight_IsbL-0800_LatLon0.15_PT015H.grib2 2026-04-30 15:52 698K
20260430T12Z_MSC_GDPS_GeopotentialHeight_IsbL-0850_LatLon0.15_PT015H.grib2 2026-04-30 15:52 703K
20260430T12Z_MSC_GDPS_GeopotentialHeight_IsbL-0875_LatLon0.15_PT015H.grib2 2026-04-30 15:52 710K
20260430T12Z_MSC_GDPS_GeopotentialHeight_IsbL-0900_LatLon0.15_PT015H.grib2 2026-04-30 15:52 717K
20260430T12Z_MSC_GDPS_GeopotentialHeight_IsbL-0925_LatLon0.15_PT015H.grib2 2026-04-30 15:52 727K
20260430T12Z_MSC_GDPS_GeopotentialHeight_IsbL-0950_LatLon0.15_PT015H.grib2 2026-04-30 15:52 734K
20260430T12Z_MSC_GDPS_GeopotentialHeight_IsbL-0970_LatLon0.15_PT015H.grib2 2026-04-30 15:52 746K
20260430T12Z_MSC_GDPS_GeopotentialHeight_IsbL-0985_LatLon0.15_PT015H.grib2 2026-04-30 15:52 761K
20260430T12Z_MSC_GDPS_GeopotentialHeight_IsbL-1000_LatLon0.15_PT015H.grib2 2026-04-30 15:52 783K
20260430T12Z_MSC_GDPS_GeopotentialHeight_IsbL-1015_LatLon0.15_PT015H.grib2 2026-04-30 15:52 801K
20260430T12Z_MSC_GDPS_Humidex_Sfc_LatLon0.15_PT015H.grib2 2026-04-30 15:52 5.3M
20260430T12Z_MSC_GDPS_IcePellets-Accum1h_Sfc_LatLon0.15_PT015H.grib2 2026-04-30 15:52 12K
20260430T12Z_MSC_GDPS_IcePellets-Accum3h_Sfc_LatLon0.15_PT015H.grib2 2026-04-30 15:52 14K
20260430T12Z_MSC_GDPS_IcePellets-Accum_Sfc_LatLon0.15_PT015H.grib2 2026-04-30 15:52 28K
20260430T12Z_MSC_GDPS_KIndex_Sfc_LatLon0.15_PT015H.grib2 2026-04-30 15:52 6.3M
20260430T12Z_MSC_GDPS_LatentHeatNetFlux_Sfc_LatLon0.15_PT015H.grib2 2026-04-30 15:52 670K
20260430T12Z_MSC_GDPS_LiftedIndex-MU-VT_IsbL-0500_LatLon0.15_PT015H.grib2 2026-04-30 15:52 5.3M
20260430T12Z_MSC_GDPS_NetLongwaveRadiationFlux-Accum_Sfc_LatLon0.15_PT015H.grib2 2026-04-30 15:52 1.1M
20260430T12Z_MSC_GDPS_NetShortwaveRadiationFlux-Accum_Sfc_LatLon0.15_PT015H.grib2 2026-04-30 15:52 1.0M
20260430T12Z_MSC_GDPS_O3MixingRatio_Sfc_LatLon0.15_PT015H.grib2 2026-04-30 16:43 2.4M
20260430T12Z_MSC_GDPS_O3_EAtm_LatLon0.15_PT015H.grib2 2026-04-30 16:43 2.5M
20260430T12Z_MSC_GDPS_PlanetaryBoundaryLayerHeight_Sfc_LatLon0.15_PT015H.grib2 2026-04-30 15:52 2.4M
20260430T12Z_MSC_GDPS_Precip-Accum1h_Sfc_LatLon0.15_PT015H.grib2 2026-04-30 15:52 3.4M
20260430T12Z_MSC_GDPS_Precip-Accum3h_Sfc_LatLon0.15_PT015H.grib2 2026-04-30 15:52 3.4M
20260430T12Z_MSC_GDPS_Precip-Accum_Sfc_LatLon0.15_PT015H.grib2 2026-04-30 15:52 4.3M
20260430T12Z_MSC_GDPS_PrecipRate_Sfc_LatLon0.15_PT015H.grib2 2026-04-30 15:52 3.0M
20260430T12Z_MSC_GDPS_PrecipType-Instant_Sfc_LatLon0.15_PT015H.grib2 2026-04-30 15:52 1.5M
20260430T12Z_MSC_GDPS_Pressure_MSL_LatLon0.15_PT015H.grib2 2026-04-30 15:52 818K
20260430T12Z_MSC_GDPS_Pressure_PVU-1.5_LatLon0.15_PT015H.grib2 2026-04-30 15:52 5.8M
20260430T12Z_MSC_GDPS_Pressure_PVU-1_LatLon0.15_PT015H.grib2 2026-04-30 15:52 6.0M
20260430T12Z_MSC_GDPS_Pressure_PVU-2_LatLon0.15_PT015H.grib2 2026-04-30 15:52 5.6M
20260430T12Z_MSC_GDPS_Pressure_Sfc_LatLon0.15_PT015H.grib2 2026-04-30 15:52 1.1M
20260430T12Z_MSC_GDPS_RadiativeTemp_Sfc_LatLon0.15_PT015H.grib2 2026-04-30 15:52 659K
20260430T12Z_MSC_GDPS_Rain-Accum1h_Sfc_LatLon0.15_PT015H.grib2 2026-04-30 15:52 1.7M
20260430T12Z_MSC_GDPS_Rain-Accum3h_Sfc_LatLon0.15_PT015H.grib2 2026-04-30 15:52 1.8M
20260430T12Z_MSC_GDPS_Rain-Accum_Sfc_LatLon0.15_PT015H.grib2 2026-04-30 15:52 3.1M
20260430T12Z_MSC_GDPS_RelativeHumidity_AGL-2m_LatLon0.15_PT015H.grib2 2026-04-30 15:52 1.1M
20260430T12Z_MSC_GDPS_RelativeHumidity_IsbL-0010_LatLon0.15_PT015H.grib2 2026-04-30 15:52 202K
20260430T12Z_MSC_GDPS_RelativeHumidity_IsbL-0020_LatLon0.15_PT015H.grib2 2026-04-30 15:52 174K
20260430T12Z_MSC_GDPS_RelativeHumidity_IsbL-0030_LatLon0.15_PT015H.grib2 2026-04-30 15:52 270K
20260430T12Z_MSC_GDPS_RelativeHumidity_IsbL-0050_LatLon0.15_PT015H.grib2 2026-04-30 15:52 516K
20260430T12Z_MSC_GDPS_RelativeHumidity_IsbL-0100_LatLon0.15_PT015H.grib2 2026-04-30 15:52 513K
20260430T12Z_MSC_GDPS_RelativeHumidity_IsbL-0150_LatLon0.15_PT015H.grib2 2026-04-30 15:52 658K
20260430T12Z_MSC_GDPS_RelativeHumidity_IsbL-0175_LatLon0.15_PT015H.grib2 2026-04-30 15:52 769K
20260430T12Z_MSC_GDPS_RelativeHumidity_IsbL-0200_LatLon0.15_PT015H.grib2 2026-04-30 15:52 689K
20260430T12Z_MSC_GDPS_RelativeHumidity_IsbL-0225_LatLon0.15_PT015H.grib2 2026-04-30 15:52 786K
20260430T12Z_MSC_GDPS_RelativeHumidity_IsbL-0250_LatLon0.15_PT015H.grib2 2026-04-30 15:52 867K
20260430T12Z_MSC_GDPS_RelativeHumidity_IsbL-0275_LatLon0.15_PT015H.grib2 2026-04-30 15:52 885K
20260430T12Z_MSC_GDPS_RelativeHumidity_IsbL-0300_LatLon0.15_PT015H.grib2 2026-04-30 15:52 928K
20260430T12Z_MSC_GDPS_RelativeHumidity_IsbL-0350_LatLon0.15_PT015H.grib2 2026-04-30 15:52 947K
20260430T12Z_MSC_GDPS_RelativeHumidity_IsbL-0400_LatLon0.15_PT015H.grib2 2026-04-30 15:52 968K
20260430T12Z_MSC_GDPS_RelativeHumidity_IsbL-0450_LatLon0.15_PT015H.grib2 2026-04-30 15:52 1.0M
20260430T12Z_MSC_GDPS_RelativeHumidity_IsbL-0500_LatLon0.15_PT015H.grib2 2026-04-30 15:52 1.0M
20260430T12Z_MSC_GDPS_RelativeHumidity_IsbL-0550_LatLon0.15_PT015H.grib2 2026-04-30 15:52 1.1M
20260430T12Z_MSC_GDPS_RelativeHumidity_IsbL-0600_LatLon0.15_PT015H.grib2 2026-04-30 15:52 1.1M
20260430T12Z_MSC_GDPS_RelativeHumidity_IsbL-0650_LatLon0.15_PT015H.grib2 2026-04-30 15:52 1.1M
20260430T12Z_MSC_GDPS_RelativeHumidity_IsbL-0700_LatLon0.15_PT015H.grib2 2026-04-30 15:52 1.1M
20260430T12Z_MSC_GDPS_RelativeHumidity_IsbL-0750_LatLon0.15_PT015H.grib2 2026-04-30 15:52 1.2M
20260430T12Z_MSC_GDPS_RelativeHumidity_IsbL-0800_LatLon0.15_PT015H.grib2 2026-04-30 15:52 1.2M
20260430T12Z_MSC_GDPS_RelativeHumidity_IsbL-0850_LatLon0.15_PT015H.grib2 2026-04-30 15:52 1.3M
20260430T12Z_MSC_GDPS_RelativeHumidity_IsbL-0875_LatLon0.15_PT015H.grib2 2026-04-30 15:52 1.3M
20260430T12Z_MSC_GDPS_RelativeHumidity_IsbL-0900_LatLon0.15_PT015H.grib2 2026-04-30 15:52 1.2M
20260430T12Z_MSC_GDPS_RelativeHumidity_IsbL-0925_LatLon0.15_PT015H.grib2 2026-04-30 15:52 1.2M
20260430T12Z_MSC_GDPS_RelativeHumidity_IsbL-0950_LatLon0.15_PT015H.grib2 2026-04-30 15:52 1.2M
20260430T12Z_MSC_GDPS_RelativeHumidity_IsbL-0970_LatLon0.15_PT015H.grib2 2026-04-30 15:52 1.2M
20260430T12Z_MSC_GDPS_RelativeHumidity_IsbL-0985_LatLon0.15_PT015H.grib2 2026-04-30 15:52 1.2M
20260430T12Z_MSC_GDPS_RelativeHumidity_IsbL-1000_LatLon0.15_PT015H.grib2 2026-04-30 15:52 1.1M
20260430T12Z_MSC_GDPS_RelativeHumidity_IsbL-1015_LatLon0.15_PT015H.grib2 2026-04-30 15:52 1.0M
20260430T12Z_MSC_GDPS_RelativeVorticity_IsbL-0200_LatLon0.15_PT015H.grib2 2026-04-30 15:52 1.5M
20260430T12Z_MSC_GDPS_RelativeVorticity_IsbL-0250_LatLon0.15_PT015H.grib2 2026-04-30 15:52 1.3M
20260430T12Z_MSC_GDPS_RelativeVorticity_IsbL-0500_LatLon0.15_PT015H.grib2 2026-04-30 15:52 1.5M
20260430T12Z_MSC_GDPS_RelativeVorticity_IsbL-0700_LatLon0.15_PT015H.grib2 2026-04-30 15:52 1.6M
20260430T12Z_MSC_GDPS_RelativeVorticity_IsbL-0850_LatLon0.15_PT015H.grib2 2026-04-30 15:52 1.6M
20260430T12Z_MSC_GDPS_Runoff-Accum_Sfc_LatLon0.15_PT015H.grib2 2026-04-30 15:52 93K
20260430T12Z_MSC_GDPS_SensibleHeatNetFlux_Sfc_LatLon0.15_PT015H.grib2 2026-04-30 15:52 621K
20260430T12Z_MSC_GDPS_ShowalterIndex_IsbL-0500_LatLon0.15_PT015H.grib2 2026-04-30 15:52 6.2M
20260430T12Z_MSC_GDPS_Snow-Accum1h_Sfc_LatLon0.15_PT015H.grib2 2026-04-30 15:52 1.0M
20260430T12Z_MSC_GDPS_Snow-Accum3h_Sfc_LatLon0.15_PT015H.grib2 2026-04-30 15:52 1.1M
20260430T12Z_MSC_GDPS_Snow-Accum_Sfc_LatLon0.15_PT015H.grib2 2026-04-30 15:52 1.7M
20260430T12Z_MSC_GDPS_SnowDensity_Sfc_LatLon0.15_PT015H.grib2 2026-04-30 15:52 255K
20260430T12Z_MSC_GDPS_SnowDepth_Sfc_LatLon0.15_PT015H.grib2 2026-04-30 15:52 1.7M
20260430T12Z_MSC_GDPS_SoilTemp_DBS-0to10cm_LatLon0.15_PT015H.grib2 2026-04-30 15:52 496K
20260430T12Z_MSC_GDPS_SoilTemp_Sfc_LatLon0.15_PT015H.grib2 2026-04-30 15:52 578K
20260430T12Z_MSC_GDPS_SoilVolumetricIceContent_Sfc_LatLon0.15_PT015H.grib2 2026-04-30 15:52 206K
20260430T12Z_MSC_GDPS_SoilVolumetricWaterContent_DBS-0to10cm_LatLon0.15_PT015H.grib2 2026-04-30 15:52 585K
20260430T12Z_MSC_GDPS_SoilVolumetricWaterContent_DBS-0to1cm_LatLon0.15_PT015H.grib2 2026-04-30 15:52 649K
20260430T12Z_MSC_GDPS_SpecificHumidity_AGL-120m_LatLon0.15_PT015H.grib2 2026-04-30 15:52 1.1M
20260430T12Z_MSC_GDPS_SpecificHumidity_AGL-2m_LatLon0.15_PT015H.grib2 2026-04-30 15:52 1.2M
20260430T12Z_MSC_GDPS_SpecificHumidity_AGL-40m_LatLon0.15_PT015H.grib2 2026-04-30 15:52 1.1M
20260430T12Z_MSC_GDPS_SpecificHumidity_AGL-80m_LatLon0.15_PT015H.grib2 2026-04-30 15:52 1.1M
20260430T12Z_MSC_GDPS_SpecificHumidity_IsbL-0001_LatLon0.15_PT015H.grib2 2026-04-30 15:52 1.4M
20260430T12Z_MSC_GDPS_SpecificHumidity_IsbL-0005_LatLon0.15_PT015H.grib2 2026-04-30 15:52 1.3M
20260430T12Z_MSC_GDPS_SpecificHumidity_IsbL-0010_LatLon0.15_PT015H.grib2 2026-04-30 15:52 1.4M
20260430T12Z_MSC_GDPS_SpecificHumidity_IsbL-0020_LatLon0.15_PT015H.grib2 2026-04-30 15:52 1.4M
20260430T12Z_MSC_GDPS_SpecificHumidity_IsbL-0030_LatLon0.15_PT015H.grib2 2026-04-30 15:52 1.4M
20260430T12Z_MSC_GDPS_SpecificHumidity_IsbL-0050_LatLon0.15_PT015H.grib2 2026-04-30 15:52 1.4M
20260430T12Z_MSC_GDPS_SpecificHumidity_IsbL-0100_LatLon0.15_PT015H.grib2 2026-04-30 15:52 1.4M
20260430T12Z_MSC_GDPS_SpecificHumidity_IsbL-0150_LatLon0.15_PT015H.grib2 2026-04-30 15:52 1.3M
20260430T12Z_MSC_GDPS_SpecificHumidity_IsbL-0175_LatLon0.15_PT015H.grib2 2026-04-30 15:52 1.2M
20260430T12Z_MSC_GDPS_SpecificHumidity_IsbL-0200_LatLon0.15_PT015H.grib2 2026-04-30 15:52 1.3M
20260430T12Z_MSC_GDPS_SpecificHumidity_IsbL-0225_LatLon0.15_PT015H.grib2 2026-04-30 15:52 1.3M
20260430T12Z_MSC_GDPS_SpecificHumidity_IsbL-0250_LatLon0.15_PT015H.grib2 2026-04-30 15:52 1.4M
20260430T12Z_MSC_GDPS_SpecificHumidity_IsbL-0275_LatLon0.15_PT015H.grib2 2026-04-30 15:52 1.3M
20260430T12Z_MSC_GDPS_SpecificHumidity_IsbL-0300_LatLon0.15_PT015H.grib2 2026-04-30 15:52 1.2M
20260430T12Z_MSC_GDPS_SpecificHumidity_IsbL-0350_LatLon0.15_PT015H.grib2 2026-04-30 15:52 1.5M
20260430T12Z_MSC_GDPS_SpecificHumidity_IsbL-0400_LatLon0.15_PT015H.grib2 2026-04-30 15:52 1.4M
20260430T12Z_MSC_GDPS_SpecificHumidity_IsbL-0450_LatLon0.15_PT015H.grib2 2026-04-30 15:52 1.6M
20260430T12Z_MSC_GDPS_SpecificHumidity_IsbL-0500_LatLon0.15_PT015H.grib2 2026-04-30 15:52 1.4M
20260430T12Z_MSC_GDPS_SpecificHumidity_IsbL-0550_LatLon0.15_PT015H.grib2 2026-04-30 15:52 1.6M
20260430T12Z_MSC_GDPS_SpecificHumidity_IsbL-0600_LatLon0.15_PT015H.grib2 2026-04-30 15:52 1.7M
20260430T12Z_MSC_GDPS_SpecificHumidity_IsbL-0650_LatLon0.15_PT015H.grib2 2026-04-30 15:52 1.5M
20260430T12Z_MSC_GDPS_SpecificHumidity_IsbL-0700_LatLon0.15_PT015H.grib2 2026-04-30 15:52 1.6M
20260430T12Z_MSC_GDPS_SpecificHumidity_IsbL-0750_LatLon0.15_PT015H.grib2 2026-04-30 15:52 1.7M
20260430T12Z_MSC_GDPS_SpecificHumidity_IsbL-0800_LatLon0.15_PT015H.grib2 2026-04-30 15:52 1.8M
20260430T12Z_MSC_GDPS_SpecificHumidity_IsbL-0850_LatLon0.15_PT015H.grib2 2026-04-30 15:52 1.9M
20260430T12Z_MSC_GDPS_SpecificHumidity_IsbL-0875_LatLon0.15_PT015H.grib2 2026-04-30 15:52 1.9M
20260430T12Z_MSC_GDPS_SpecificHumidity_IsbL-0900_LatLon0.15_PT015H.grib2 2026-04-30 15:52 1.9M
20260430T12Z_MSC_GDPS_SpecificHumidity_IsbL-0925_LatLon0.15_PT015H.grib2 2026-04-30 15:52 1.9M
20260430T12Z_MSC_GDPS_SpecificHumidity_IsbL-0950_LatLon0.15_PT015H.grib2 2026-04-30 15:52 1.5M
20260430T12Z_MSC_GDPS_SpecificHumidity_IsbL-0970_LatLon0.15_PT015H.grib2 2026-04-30 15:52 1.5M
20260430T12Z_MSC_GDPS_SpecificHumidity_IsbL-0985_LatLon0.15_PT015H.grib2 2026-04-30 15:52 1.5M
20260430T12Z_MSC_GDPS_SpecificHumidity_IsbL-1000_LatLon0.15_PT015H.grib2 2026-04-30 15:52 1.5M
20260430T12Z_MSC_GDPS_SpecificHumidity_IsbL-1015_LatLon0.15_PT015H.grib2 2026-04-30 15:52 1.4M
20260430T12Z_MSC_GDPS_SpecificHumidity_Sfc_LatLon0.15_PT015H.grib2 2026-04-30 15:52 658K
20260430T12Z_MSC_GDPS_Thickness_IsbL-0850to0700_LatLon0.15_PT015H.grib2 2026-04-30 15:52 463K
20260430T12Z_MSC_GDPS_Thickness_IsbL-1000to0500_LatLon0.15_PT015H.grib2 2026-04-30 15:52 365K
20260430T12Z_MSC_GDPS_Thickness_IsbL-1000to0850_LatLon0.15_PT015H.grib2 2026-04-30 15:52 484K
20260430T12Z_MSC_GDPS_TotalCloudCover_Sfc_LatLon0.15_PT015H.grib2 2026-04-30 15:52 825K
20260430T12Z_MSC_GDPS_TotalTotalsIndex_Sfc_LatLon0.15_PT015H.grib2 2026-04-30 15:52 6.2M
20260430T12Z_MSC_GDPS_UVIndex-ClearSky_Sfc_LatLon0.15_PT015H.grib2 2026-04-30 16:43 1.0M
20260430T12Z_MSC_GDPS_UVIndex_Sfc_LatLon0.15_PT015H.grib2 2026-04-30 16:43 1.5M
20260430T12Z_MSC_GDPS_UpwardLongwaveRadiationFlux_NTAtm_LatLon0.15_PT015H.grib2 2026-04-30 15:52 1.1M
20260430T12Z_MSC_GDPS_VerticalVelocity_IsbL-0200_LatLon0.15_PT015H.grib2 2026-04-30 15:52 1.1M
20260430T12Z_MSC_GDPS_VerticalVelocity_IsbL-0250_LatLon0.15_PT015H.grib2 2026-04-30 15:52 1.0M
20260430T12Z_MSC_GDPS_VerticalVelocity_IsbL-0500_LatLon0.15_PT015H.grib2 2026-04-30 15:52 1.3M
20260430T12Z_MSC_GDPS_VerticalVelocity_IsbL-0600_LatLon0.15_PT015H.grib2 2026-04-30 15:52 1.0M
20260430T12Z_MSC_GDPS_VerticalVelocity_IsbL-0700_LatLon0.15_PT015H.grib2 2026-04-30 15:52 1.1M
20260430T12Z_MSC_GDPS_VerticalVelocity_IsbL-0850_LatLon0.15_PT015H.grib2 2026-04-30 15:52 1.3M
20260430T12Z_MSC_GDPS_WindChill_Sfc_LatLon0.15_PT015H.grib2 2026-04-30 15:52 5.3M
20260430T12Z_MSC_GDPS_WindDir_AGL-10m_LatLon0.15_PT015H.grib2 2026-04-30 15:52 1.3M
20260430T12Z_MSC_GDPS_WindDir_AGL-120m_LatLon0.15_PT015H.grib2 2026-04-30 15:52 1.3M
20260430T12Z_MSC_GDPS_WindDir_AGL-40m_LatLon0.15_PT015H.grib2 2026-04-30 15:52 1.4M
20260430T12Z_MSC_GDPS_WindDir_AGL-80m_LatLon0.15_PT015H.grib2 2026-04-30 15:52 1.4M
20260430T12Z_MSC_GDPS_WindDir_IsbL-0001_LatLon0.15_PT015H.grib2 2026-04-30 15:52 708K
20260430T12Z_MSC_GDPS_WindDir_IsbL-0005_LatLon0.15_PT015H.grib2 2026-04-30 15:52 807K
20260430T12Z_MSC_GDPS_WindDir_IsbL-0010_LatLon0.15_PT015H.grib2 2026-04-30 15:52 862K
20260430T12Z_MSC_GDPS_WindDir_IsbL-0020_LatLon0.15_PT015H.grib2 2026-04-30 15:52 964K
20260430T12Z_MSC_GDPS_WindDir_IsbL-0030_LatLon0.15_PT015H.grib2 2026-04-30 15:52 941K
20260430T12Z_MSC_GDPS_WindDir_IsbL-0050_LatLon0.15_PT015H.grib2 2026-04-30 15:52 942K
20260430T12Z_MSC_GDPS_WindDir_IsbL-0100_LatLon0.15_PT015H.grib2 2026-04-30 15:52 1.0M
20260430T12Z_MSC_GDPS_WindDir_IsbL-0150_LatLon0.15_PT015H.grib2 2026-04-30 15:52 1.0M
20260430T12Z_MSC_GDPS_WindDir_IsbL-0175_LatLon0.15_PT015H.grib2 2026-04-30 15:52 1.1M
20260430T12Z_MSC_GDPS_WindDir_IsbL-0200_LatLon0.15_PT015H.grib2 2026-04-30 15:52 1.1M
20260430T12Z_MSC_GDPS_WindDir_IsbL-0225_LatLon0.15_PT015H.grib2 2026-04-30 15:52 1.1M
20260430T12Z_MSC_GDPS_WindDir_IsbL-0250_LatLon0.15_PT015H.grib2 2026-04-30 15:52 1.1M
20260430T12Z_MSC_GDPS_WindDir_IsbL-0275_LatLon0.15_PT015H.grib2 2026-04-30 15:52 1.2M
20260430T12Z_MSC_GDPS_WindDir_IsbL-0300_LatLon0.15_PT015H.grib2 2026-04-30 15:52 1.2M
20260430T12Z_MSC_GDPS_WindDir_IsbL-0350_LatLon0.15_PT015H.grib2 2026-04-30 15:52 1.2M
20260430T12Z_MSC_GDPS_WindDir_IsbL-0400_LatLon0.15_PT015H.grib2 2026-04-30 15:52 1.3M
20260430T12Z_MSC_GDPS_WindDir_IsbL-0450_LatLon0.15_PT015H.grib2 2026-04-30 15:52 1.3M
20260430T12Z_MSC_GDPS_WindDir_IsbL-0500_LatLon0.15_PT015H.grib2 2026-04-30 15:52 1.3M
20260430T12Z_MSC_GDPS_WindDir_IsbL-0550_LatLon0.15_PT015H.grib2 2026-04-30 15:52 1.4M
20260430T12Z_MSC_GDPS_WindDir_IsbL-0600_LatLon0.15_PT015H.grib2 2026-04-30 15:52 1.4M
20260430T12Z_MSC_GDPS_WindDir_IsbL-0650_LatLon0.15_PT015H.grib2 2026-04-30 15:52 1.5M
20260430T12Z_MSC_GDPS_WindDir_IsbL-0700_LatLon0.15_PT015H.grib2 2026-04-30 15:52 1.6M
20260430T12Z_MSC_GDPS_WindDir_IsbL-0750_LatLon0.15_PT015H.grib2 2026-04-30 15:52 1.7M
20260430T12Z_MSC_GDPS_WindDir_IsbL-0800_LatLon0.15_PT015H.grib2 2026-04-30 15:52 1.8M
20260430T12Z_MSC_GDPS_WindDir_IsbL-0850_LatLon0.15_PT015H.grib2 2026-04-30 15:52 1.9M
20260430T12Z_MSC_GDPS_WindDir_IsbL-0875_LatLon0.15_PT015H.grib2 2026-04-30 15:52 1.9M
20260430T12Z_MSC_GDPS_WindDir_IsbL-0900_LatLon0.15_PT015H.grib2 2026-04-30 15:52 2.0M
20260430T12Z_MSC_GDPS_WindDir_IsbL-0925_LatLon0.15_PT015H.grib2 2026-04-30 15:52 2.0M
20260430T12Z_MSC_GDPS_WindDir_IsbL-0950_LatLon0.15_PT015H.grib2 2026-04-30 15:52 2.0M
20260430T12Z_MSC_GDPS_WindDir_IsbL-0970_LatLon0.15_PT015H.grib2 2026-04-30 15:52 2.0M
20260430T12Z_MSC_GDPS_WindDir_IsbL-0985_LatLon0.15_PT015H.grib2 2026-04-30 15:52 2.0M
20260430T12Z_MSC_GDPS_WindDir_IsbL-1000_LatLon0.15_PT015H.grib2 2026-04-30 15:52 2.1M
20260430T12Z_MSC_GDPS_WindDir_IsbL-1015_LatLon0.15_PT015H.grib2 2026-04-30 15:52 2.0M
20260430T12Z_MSC_GDPS_WindGust-Max_AGL-10m_LatLon0.15_PT015H.grib2 2026-04-30 15:52 2.2M
20260430T12Z_MSC_GDPS_WindGust-Min_AGL-10m_LatLon0.15_PT015H.grib2 2026-04-30 15:52 2.2M
20260430T12Z_MSC_GDPS_WindGust_AGL-10m_LatLon0.15_PT015H.grib2 2026-04-30 15:52 2.2M
20260430T12Z_MSC_GDPS_WindSpeed_AGL-10m_LatLon0.15_PT015H.grib2 2026-04-30 15:52 1.1M
20260430T12Z_MSC_GDPS_WindSpeed_AGL-120m_LatLon0.15_PT015H.grib2 2026-04-30 15:52 1.2M
20260430T12Z_MSC_GDPS_WindSpeed_AGL-40m_LatLon0.15_PT015H.grib2 2026-04-30 15:52 1.2M
20260430T12Z_MSC_GDPS_WindSpeed_AGL-80m_LatLon0.15_PT015H.grib2 2026-04-30 15:52 1.2M
20260430T12Z_MSC_GDPS_WindSpeed_IsbL-0001_LatLon0.15_PT015H.grib2 2026-04-30 15:52 645K
20260430T12Z_MSC_GDPS_WindSpeed_IsbL-0005_LatLon0.15_PT015H.grib2 2026-04-30 15:52 618K
20260430T12Z_MSC_GDPS_WindSpeed_IsbL-0010_LatLon0.15_PT015H.grib2 2026-04-30 15:52 634K
20260430T12Z_MSC_GDPS_WindSpeed_IsbL-0020_LatLon0.15_PT015H.grib2 2026-04-30 15:52 866K
20260430T12Z_MSC_GDPS_WindSpeed_IsbL-0030_LatLon0.15_PT015H.grib2 2026-04-30 15:52 871K
20260430T12Z_MSC_GDPS_WindSpeed_IsbL-0050_LatLon0.15_PT015H.grib2 2026-04-30 15:52 912K
20260430T12Z_MSC_GDPS_WindSpeed_IsbL-0100_LatLon0.15_PT015H.grib2 2026-04-30 15:52 1.1M
20260430T12Z_MSC_GDPS_WindSpeed_IsbL-0150_LatLon0.15_PT015H.grib2 2026-04-30 15:52 1.0M
20260430T12Z_MSC_GDPS_WindSpeed_IsbL-0175_LatLon0.15_PT015H.grib2 2026-04-30 15:52 1.0M
20260430T12Z_MSC_GDPS_WindSpeed_IsbL-0200_LatLon0.15_PT015H.grib2 2026-04-30 15:52 1.1M
20260430T12Z_MSC_GDPS_WindSpeed_IsbL-0225_LatLon0.15_PT015H.grib2 2026-04-30 15:52 1.1M
20260430T12Z_MSC_GDPS_WindSpeed_IsbL-0250_LatLon0.15_PT015H.grib2 2026-04-30 15:52 1.1M
20260430T12Z_MSC_GDPS_WindSpeed_IsbL-0275_LatLon0.15_PT015H.grib2 2026-04-30 15:52 1.1M
20260430T12Z_MSC_GDPS_WindSpeed_IsbL-0300_LatLon0.15_PT015H.grib2 2026-04-30 15:52 1.1M
20260430T12Z_MSC_GDPS_WindSpeed_IsbL-0350_LatLon0.15_PT015H.grib2 2026-04-30 15:52 1.1M
20260430T12Z_MSC_GDPS_WindSpeed_IsbL-0400_LatLon0.15_PT015H.grib2 2026-04-30 15:52 1.1M
20260430T12Z_MSC_GDPS_WindSpeed_IsbL-0450_LatLon0.15_PT015H.grib2 2026-04-30 15:52 1.1M
20260430T12Z_MSC_GDPS_WindSpeed_IsbL-0500_LatLon0.15_PT015H.grib2 2026-04-30 15:52 1.1M
20260430T12Z_MSC_GDPS_WindSpeed_IsbL-0550_LatLon0.15_PT015H.grib2 2026-04-30 15:52 1.1M
20260430T12Z_MSC_GDPS_WindSpeed_IsbL-0600_LatLon0.15_PT015H.grib2 2026-04-30 15:52 1.1M
20260430T12Z_MSC_GDPS_WindSpeed_IsbL-0650_LatLon0.15_PT015H.grib2 2026-04-30 15:52 1.4M
20260430T12Z_MSC_GDPS_WindSpeed_IsbL-0700_LatLon0.15_PT015H.grib2 2026-04-30 15:52 1.5M
20260430T12Z_MSC_GDPS_WindSpeed_IsbL-0750_LatLon0.15_PT015H.grib2 2026-04-30 15:52 1.5M
20260430T12Z_MSC_GDPS_WindSpeed_IsbL-0800_LatLon0.15_PT015H.grib2 2026-04-30 15:52 1.7M
20260430T12Z_MSC_GDPS_WindSpeed_IsbL-0850_LatLon0.15_PT015H.grib2 2026-04-30 15:52 1.7M
20260430T12Z_MSC_GDPS_WindSpeed_IsbL-0875_LatLon0.15_PT015H.grib2 2026-04-30 15:52 1.8M
20260430T12Z_MSC_GDPS_WindSpeed_IsbL-0900_LatLon0.15_PT015H.grib2 2026-04-30 15:52 1.9M
20260430T12Z_MSC_GDPS_WindSpeed_IsbL-0925_LatLon0.15_PT015H.grib2 2026-04-30 15:52 1.9M
20260430T12Z_MSC_GDPS_WindSpeed_IsbL-0950_LatLon0.15_PT015H.grib2 2026-04-30 15:52 1.9M
20260430T12Z_MSC_GDPS_WindSpeed_IsbL-0970_LatLon0.15_PT015H.grib2 2026-04-30 15:52 1.9M
20260430T12Z_MSC_GDPS_WindSpeed_IsbL-0985_LatLon0.15_PT015H.grib2 2026-04-30 15:52 1.8M
20260430T12Z_MSC_GDPS_WindSpeed_IsbL-1000_LatLon0.15_PT015H.grib2 2026-04-30 15:52 1.8M
20260430T12Z_MSC_GDPS_WindSpeed_IsbL-1015_LatLon0.15_PT015H.grib2 2026-04-30 15:52 1.8M
20260430T12Z_MSC_GDPS_WindU_AGL-10m_LatLon0.15_PT015H.grib2 2026-04-30 15:52 1.3M
20260430T12Z_MSC_GDPS_WindU_AGL-120m_LatLon0.15_PT015H.grib2 2026-04-30 15:52 1.0M
20260430T12Z_MSC_GDPS_WindU_AGL-40m_LatLon0.15_PT015H.grib2 2026-04-30 15:52 969K
20260430T12Z_MSC_GDPS_WindU_AGL-80m_LatLon0.15_PT015H.grib2 2026-04-30 15:52 1.0M
20260430T12Z_MSC_GDPS_WindU_IsbL-0001_LatLon0.15_PT015H.grib2 2026-04-30 15:52 647K
20260430T12Z_MSC_GDPS_WindU_IsbL-0005_LatLon0.15_PT015H.grib2 2026-04-30 15:52 697K
20260430T12Z_MSC_GDPS_WindU_IsbL-0010_LatLon0.15_PT015H.grib2 2026-04-30 15:52 627K
20260430T12Z_MSC_GDPS_WindU_IsbL-0020_LatLon0.15_PT015H.grib2 2026-04-30 15:52 737K
20260430T12Z_MSC_GDPS_WindU_IsbL-0030_LatLon0.15_PT015H.grib2 2026-04-30 15:52 745K
20260430T12Z_MSC_GDPS_WindU_IsbL-0050_LatLon0.15_PT015H.grib2 2026-04-30 15:52 775K
20260430T12Z_MSC_GDPS_WindU_IsbL-0100_LatLon0.15_PT015H.grib2 2026-04-30 15:52 922K
20260430T12Z_MSC_GDPS_WindU_IsbL-0150_LatLon0.15_PT015H.grib2 2026-04-30 15:52 1.0M
20260430T12Z_MSC_GDPS_WindU_IsbL-0175_LatLon0.15_PT015H.grib2 2026-04-30 15:52 1.0M
20260430T12Z_MSC_GDPS_WindU_IsbL-0200_LatLon0.15_PT015H.grib2 2026-04-30 15:52 1.1M
20260430T12Z_MSC_GDPS_WindU_IsbL-0225_LatLon0.15_PT015H.grib2 2026-04-30 15:52 854K
20260430T12Z_MSC_GDPS_WindU_IsbL-0250_LatLon0.15_PT015H.grib2 2026-04-30 15:52 856K
20260430T12Z_MSC_GDPS_WindU_IsbL-0275_LatLon0.15_PT015H.grib2 2026-04-30 15:52 881K
20260430T12Z_MSC_GDPS_WindU_IsbL-0300_LatLon0.15_PT015H.grib2 2026-04-30 15:52 872K
20260430T12Z_MSC_GDPS_WindU_IsbL-0350_LatLon0.15_PT015H.grib2 2026-04-30 15:52 886K
20260430T12Z_MSC_GDPS_WindU_IsbL-0400_LatLon0.15_PT015H.grib2 2026-04-30 15:52 1.1M
20260430T12Z_MSC_GDPS_WindU_IsbL-0450_LatLon0.15_PT015H.grib2 2026-04-30 15:52 1.1M
20260430T12Z_MSC_GDPS_WindU_IsbL-0500_LatLon0.15_PT015H.grib2 2026-04-30 15:52 1.1M
20260430T12Z_MSC_GDPS_WindU_IsbL-0550_LatLon0.15_PT015H.grib2 2026-04-30 15:52 1.1M
20260430T12Z_MSC_GDPS_WindU_IsbL-0600_LatLon0.15_PT015H.grib2 2026-04-30 15:52 1.1M
20260430T12Z_MSC_GDPS_WindU_IsbL-0650_LatLon0.15_PT015H.grib2 2026-04-30 15:52 1.2M
20260430T12Z_MSC_GDPS_WindU_IsbL-0700_LatLon0.15_PT015H.grib2 2026-04-30 15:52 1.2M
20260430T12Z_MSC_GDPS_WindU_IsbL-0750_LatLon0.15_PT015H.grib2 2026-04-30 15:52 1.3M
20260430T12Z_MSC_GDPS_WindU_IsbL-0800_LatLon0.15_PT015H.grib2 2026-04-30 15:52 1.3M
20260430T12Z_MSC_GDPS_WindU_IsbL-0850_LatLon0.15_PT015H.grib2 2026-04-30 15:52 1.4M
20260430T12Z_MSC_GDPS_WindU_IsbL-0875_LatLon0.15_PT015H.grib2 2026-04-30 15:52 1.4M
20260430T12Z_MSC_GDPS_WindU_IsbL-0900_LatLon0.15_PT015H.grib2 2026-04-30 15:52 1.5M
20260430T12Z_MSC_GDPS_WindU_IsbL-0925_LatLon0.15_PT015H.grib2 2026-04-30 15:52 1.5M
20260430T12Z_MSC_GDPS_WindU_IsbL-0950_LatLon0.15_PT015H.grib2 2026-04-30 15:52 1.4M
20260430T12Z_MSC_GDPS_WindU_IsbL-0970_LatLon0.15_PT015H.grib2 2026-04-30 15:52 1.4M
20260430T12Z_MSC_GDPS_WindU_IsbL-0985_LatLon0.15_PT015H.grib2 2026-04-30 15:52 1.4M
20260430T12Z_MSC_GDPS_WindU_IsbL-1000_LatLon0.15_PT015H.grib2 2026-04-30 15:52 1.4M
20260430T12Z_MSC_GDPS_WindU_IsbL-1015_LatLon0.15_PT015H.grib2 2026-04-30 15:52 1.3M
20260430T12Z_MSC_GDPS_WindV_AGL-10m_LatLon0.15_PT015H.grib2 2026-04-30 15:52 1.6M
20260430T12Z_MSC_GDPS_WindV_AGL-120m_LatLon0.15_PT015H.grib2 2026-04-30 15:52 971K
20260430T12Z_MSC_GDPS_WindV_AGL-40m_LatLon0.15_PT015H.grib2 2026-04-30 15:52 964K
20260430T12Z_MSC_GDPS_WindV_AGL-80m_LatLon0.15_PT015H.grib2 2026-04-30 15:52 971K
20260430T12Z_MSC_GDPS_WindV_IsbL-0001_LatLon0.15_PT015H.grib2 2026-04-30 15:52 715K
20260430T12Z_MSC_GDPS_WindV_IsbL-0005_LatLon0.15_PT015H.grib2 2026-04-30 15:52 769K
20260430T12Z_MSC_GDPS_WindV_IsbL-0010_LatLon0.15_PT015H.grib2 2026-04-30 15:52 801K
20260430T12Z_MSC_GDPS_WindV_IsbL-0020_LatLon0.15_PT015H.grib2 2026-04-30 15:52 855K
20260430T12Z_MSC_GDPS_WindV_IsbL-0030_LatLon0.15_PT015H.grib2 2026-04-30 15:52 859K
20260430T12Z_MSC_GDPS_WindV_IsbL-0050_LatLon0.15_PT015H.grib2 2026-04-30 15:52 910K
20260430T12Z_MSC_GDPS_WindV_IsbL-0100_LatLon0.15_PT015H.grib2 2026-04-30 15:52 1.1M
20260430T12Z_MSC_GDPS_WindV_IsbL-0150_LatLon0.15_PT015H.grib2 2026-04-30 15:52 1.0M
20260430T12Z_MSC_GDPS_WindV_IsbL-0175_LatLon0.15_PT015H.grib2 2026-04-30 15:52 1.0M
20260430T12Z_MSC_GDPS_WindV_IsbL-0200_LatLon0.15_PT015H.grib2 2026-04-30 15:52 848K
20260430T12Z_MSC_GDPS_WindV_IsbL-0225_LatLon0.15_PT015H.grib2 2026-04-30 15:52 854K
20260430T12Z_MSC_GDPS_WindV_IsbL-0250_LatLon0.15_PT015H.grib2 2026-04-30 15:52 853K
20260430T12Z_MSC_GDPS_WindV_IsbL-0275_LatLon0.15_PT015H.grib2 2026-04-30 15:52 878K
20260430T12Z_MSC_GDPS_WindV_IsbL-0300_LatLon0.15_PT015H.grib2 2026-04-30 15:52 866K
20260430T12Z_MSC_GDPS_WindV_IsbL-0350_LatLon0.15_PT015H.grib2 2026-04-30 15:52 879K
20260430T12Z_MSC_GDPS_WindV_IsbL-0400_LatLon0.15_PT015H.grib2 2026-04-30 15:52 882K
20260430T12Z_MSC_GDPS_WindV_IsbL-0450_LatLon0.15_PT015H.grib2 2026-04-30 15:52 1.1M
20260430T12Z_MSC_GDPS_WindV_IsbL-0500_LatLon0.15_PT015H.grib2 2026-04-30 15:52 1.1M
20260430T12Z_MSC_GDPS_WindV_IsbL-0550_LatLon0.15_PT015H.grib2 2026-04-30 15:52 1.1M
20260430T12Z_MSC_GDPS_WindV_IsbL-0600_LatLon0.15_PT015H.grib2 2026-04-30 15:52 1.1M
20260430T12Z_MSC_GDPS_WindV_IsbL-0650_LatLon0.15_PT015H.grib2 2026-04-30 15:52 1.2M
20260430T12Z_MSC_GDPS_WindV_IsbL-0700_LatLon0.15_PT015H.grib2 2026-04-30 15:52 1.2M
20260430T12Z_MSC_GDPS_WindV_IsbL-0750_LatLon0.15_PT015H.grib2 2026-04-30 15:52 1.2M
20260430T12Z_MSC_GDPS_WindV_IsbL-0800_LatLon0.15_PT015H.grib2 2026-04-30 15:52 1.3M
20260430T12Z_MSC_GDPS_WindV_IsbL-0850_LatLon0.15_PT015H.grib2 2026-04-30 15:52 1.4M
20260430T12Z_MSC_GDPS_WindV_IsbL-0875_LatLon0.15_PT015H.grib2 2026-04-30 15:52 1.4M
20260430T12Z_MSC_GDPS_WindV_IsbL-0900_LatLon0.15_PT015H.grib2 2026-04-30 15:52 1.4M
20260430T12Z_MSC_GDPS_WindV_IsbL-0925_LatLon0.15_PT015H.grib2 2026-04-30 15:52 1.4M
20260430T12Z_MSC_GDPS_WindV_IsbL-0950_LatLon0.15_PT015H.grib2 2026-04-30 15:52 1.4M
20260430T12Z_MSC_GDPS_WindV_IsbL-0970_LatLon0.15_PT015H.grib2 2026-04-30 15:52 1.4M
20260430T12Z_MSC_GDPS_WindV_IsbL-0985_LatLon0.15_PT015H.grib2 2026-04-30 15:52 1.4M
20260430T12Z_MSC_GDPS_WindV_IsbL-1000_LatLon0.15_PT015H.grib2 2026-04-30 15:52 1.4M
20260430T12Z_MSC_GDPS_WindV_IsbL-1015_LatLon0.15_PT015H.grib2 2026-04-30 15:52 1.3M